FREGAT R/B, 59073

Orbit data source: Space-Track

FREGAT R/B, 59073 is space debris in LEO originally from a launch on Thu, 29 Feb 2024 UTC launched from the Vostochny Cosmodrome (VOSTO). Debris objects in space refer to the collection of defunct objects orbiting the Earth. Examples of debris include non-operational satellites, rocket bodies, and fragments generated from explosions, collisions, or faulty payload assembly.

Loading next visibility...
Identifier
59073, 2024-039W
Orbit
LEO
Country
Flag of CISCIS
Related business
Manufacturer
Lavochkin
Mission
Spacecraft
Bus & Motor
FREGAT, Unknown motor
Mass
1,624 kg wet, 1,000 kg dry
Launch date (UTC)
2024-02-29 (2 years ago)
Launch vehicle
Unknown
Launch site
Vostochny Cosmodrome (VOSTO)
Object type
Payload
Rocket body
Debris
Shape & HBR
Cyl, 1.7 m
Radar Cross Section
8.354 m², Large (>1 m²)

Expand to show TLE details & history
Last TLE update: 8 hours ago

TLE from 8 hours ago
0 FREGAT R/B
1 59073U 24039W   26169.56724815  .00000157  00000-0  37404-4 0  9999
2 59073  88.9888 283.7995 0032145 307.3292  52.4986 14.48626404121602
Epoch: 2026-06-18T13:36Z
TLE epoch observation values (Epoch: 2026-06-18T13:36:50.240Z)
Latitude
0.00003°
Longitude
172.78144°
Altitude
719.365 km
Speed
7.503 km/s
True Right ascension
18h 55m 11s
True Declination
0° 00' 00"
Sunlit
Object was in full shadow at epoch
Visualization orbit readout
Latitude
Unknown
Longitude
Unknown
Altitude
Unknown
Speed
Unknown
Apparent Right ascension
Unknown
Apparent Declination
Unknown
Sunlit
N/A
Visualization observer readout
Local Sidereal Time
07:56:17
Azimuth
Unknown
Elevation
Unknown
Doppler factor
Unknown
Orbital elements
Apogee altitude
749.888 km
Perigee altitude
704.209 km
Semi-major axis
7,105.186 km
Eccentricity
0.00321
Inclination
88.9888°
RAAN
283.7995°
Arg. of periapsis
307.3292°
True anomaly
52.79155°
Mean anomaly
52.4986°
Eccentric anomaly
52.645°
Mean motion
3.62393 °/min
Orbital period
99.34 mins
BSTAR
0.000037404
Loading maneuver chart data...
Computing Atmospheric mass density...
Loading historical data...
Loading historical data...
Loading historical data...
Loading historical data...
Loading historical data...
Loading historical data...
Loading historical data...

Documentation

Showing up to 5 results
|